Location: Bush Observatory
(40.2653°N, 94.3194°W)
Time: 22:30:09
(UTC-06:00)

Iridium 13 - Visible Passes

Search period start: 21 February 2017 00:00
Search period end: 03 March 2017 00:00
Orbit: 776 x 779 km, 86.4° (Epoch: 21 February)

Date Brightness Start Highest point End Pass type
(mag) Time Alt. Az. Time Alt. Az. Time Alt. Az.
21 Feb 8.5 03:05:53 10° NE 03:06:00 10° NE 03:06:00 10° NE visible
21 Feb 7.2 04:44:46 10° N 04:46:26 21° NNW 04:46:26 21° NNW visible
22 Feb 7.6 04:11:13 10° N 04:12:27 18° N 04:12:27 18° N visible
23 Feb 8.1 03:37:57 10° NNE 03:38:36 13° NNE 03:38:36 13° NNE visible
24 Feb 7.8 04:45:04 10° NNW 04:45:17 11° NNW 04:45:17 11° NNW visible
25 Feb 8.0 04:11:19 10° N 04:11:34 11° N 04:11:34 11° N visible
26 Feb 8.3 03:37:52 10° N 03:37:54 10° N 03:37:54 10° N visible
